WZZ8TF EPKK-EPKT

Flight info

Callsign WZZ8TF
Flight time 0h 24m
Altitude 19000
Route POBOK M985 KOTEK/N0326F180 N133 NEGUV M66 KUKAM
Aircraft A20N/M-SDE2E3FGHIRWXY/LB1

Departure

Time 2026-05-01 08:09
Airport Kraków John Paul II International Airport (EPKK)

Arrival

Time 2026-05-01 08:33
Airport Katowice Wojciech Korfanty International Airport (EPKT)
Time Latitude Longitude Altitude Speed Heading
2026-05-01 07:51 50.07558 19.80080 788 ft 0 kts 333°
2026-05-01 08:06 50.07560 19.80079 788 ft 1 kts 338°
2026-05-01 08:06 50.07577 19.80107 788 ft 6 kts 86°
2026-05-01 08:07 50.07611 19.80342 787 ft 15 kts 33°
2026-05-01 08:07 50.07810 19.80340 787 ft 15 kts 350°
2026-05-01 08:08 50.07937 19.80300 786 ft 24 kts 346°
2026-05-01 08:08 50.07816 19.78800 830 ft 148 kts 257°
2026-05-01 08:09 50.07350 19.75446 2671 ft 156 kts 258°
2026-05-01 08:09 50.07180 19.74320 3270 ft 162 kts 260°
2026-05-01 08:09 50.06920 19.72482 3981 ft 185 kts 261°
2026-05-01 08:10 50.06332 19.68111 5310 ft 225 kts 267°
2026-05-01 08:10 50.07493 19.63652 6864 ft 235 kts 325°
2026-05-01 08:11 50.10582 19.62088 8385 ft 246 kts 351°
2026-05-01 08:11 50.14020 19.61786 8422 ft 259 kts 19°
2026-05-01 08:12 50.16860 19.65023 8630 ft 256 kts 40°
2026-05-01 08:12 50.18197 19.66854 9255 ft 255 kts 40°
2026-05-01 08:12 50.20897 19.70512 10710 ft 262 kts 40°
2026-05-01 08:13 50.22316 19.72435 11411 ft 278 kts 39°
2026-05-01 08:13 50.23811 19.74466 12122 ft 288 kts 39°
2026-05-01 08:13 50.26918 19.78695 13589 ft 304 kts 39°
2026-05-01 08:14 50.28521 19.80884 14324 ft 306 kts 39°
2026-05-01 08:14 50.30130 19.83081 15001 ft 308 kts 40°
2026-05-01 08:14 50.31752 19.85297 15702 ft 310 kts 40°
2026-05-01 08:14 50.33361 19.87496 16451 ft 312 kts 40°
2026-05-01 08:15 50.35002 19.89742 17226 ft 313 kts 40°
2026-05-01 08:15 50.38296 19.94254 18804 ft 319 kts 40°
2026-05-01 08:15 50.40035 19.96470 19174 ft 322 kts 29°
2026-05-01 08:16 50.41865 19.98488 19302 ft 322 kts 29°
2026-05-01 08:16 50.43660 20.00583 19344 ft 321 kts 32°
2026-05-01 08:16 50.45394 20.02810 19347 ft 321 kts 34°
2026-05-01 08:16 50.47072 20.05114 19343 ft 321 kts 36°
2026-05-01 08:17 50.48731 20.07470 19344 ft 321 kts 37°
2026-05-01 08:17 50.50375 20.09836 19342 ft 321 kts 38°
2026-05-01 08:17 50.52021 20.12207 19338 ft 321 kts 38°
2026-05-01 08:17 50.53669 20.14577 19337 ft 320 kts 38°
2026-05-01 08:18 50.55307 20.16927 19338 ft 314 kts 38°
2026-05-01 08:18 50.58640 20.21101 19338 ft 308 kts 28°
2026-05-01 08:19 50.62592 20.23608 19134 ft 307 kts 14°
2026-05-01 08:19 50.64705 20.24059 18736 ft 307 kts
2026-05-01 08:19 50.66833 20.23715 18283 ft 309 kts 351°
2026-05-01 08:19 50.68894 20.22737 17818 ft 308 kts 347°
2026-05-01 08:20 50.70927 20.21708 17307 ft 306 kts 344°
2026-05-01 08:20 50.72755 20.19902 16800 ft 320 kts 320°
2026-05-01 08:20 50.73978 20.16889 16281 ft 336 kts 295°
2026-05-01 08:20 50.74331 20.13184 15774 ft 351 kts 271°
2026-05-01 08:21 50.73719 20.09424 15273 ft 361 kts 246°
2026-05-01 08:21 50.72299 20.06138 14779 ft 364 kts 231°
2026-05-01 08:21 50.70585 20.03181 14291 ft 364 kts 227°
2026-05-01 08:21 50.68806 20.00345 13755 ft 362 kts 226°
2026-05-01 08:22 50.67038 19.97514 13248 ft 361 kts 227°
2026-05-01 08:22 50.65325 19.94706 12723 ft 359 kts 227°
2026-05-01 08:22 50.63617 19.91850 12205 ft 357 kts 228°
2026-05-01 08:22 50.61921 19.88987 11695 ft 355 kts 228°
2026-05-01 08:23 50.60247 19.86147 11196 ft 353 kts 228°
2026-05-01 08:23 50.58573 19.83309 10586 ft 352 kts 228°
2026-05-01 08:23 50.56919 19.80508 9994 ft 345 kts 228°
2026-05-01 08:23 50.55302 19.77777 9419 ft 336 kts 228°
2026-05-01 08:24 50.53732 19.75131 8941 ft 325 kts 229°
2026-05-01 08:24 50.52214 19.72575 8477 ft 315 kts 229°
2026-05-01 08:24 50.50742 19.70096 8023 ft 306 kts 229°
2026-05-01 08:24 50.49311 19.67668 7563 ft 298 kts 233°
2026-05-01 08:25 50.48283 19.64944 7122 ft 285 kts 255°
2026-05-01 08:25 50.47978 19.61963 6690 ft 272 kts 271°
2026-05-01 08:25 50.47899 19.59165 6300 ft 248 kts 271°
2026-05-01 08:25 50.47790 19.56571 5986 ft 225 kts 266°
2026-05-01 08:26 50.47601 19.54249 5852 ft 203 kts 269°
2026-05-01 08:26 50.47519 19.52177 5801 ft 186 kts 273°
2026-05-01 08:26 50.47505 19.50122 5727 ft 188 kts 275°
2026-05-01 08:26 50.47511 19.48078 5638 ft 187 kts 275°
2026-05-01 08:27 50.47518 19.46021 5471 ft 187 kts 275°
2026-05-01 08:27 50.47520 19.43997 5262 ft 185 kts 274°
2026-05-01 08:27 50.47525 19.41971 5039 ft 185 kts 274°
2026-05-01 08:27 50.47529 19.39958 4793 ft 183 kts 274°
2026-05-01 08:28 50.47533 19.37972 4560 ft 182 kts 274°
2026-05-01 08:28 50.47536 19.35996 4305 ft 177 kts 274°
2026-05-01 08:28 50.47541 19.34120 4074 ft 171 kts 274°
2026-05-01 08:28 50.47546 19.32252 3848 ft 170 kts 274°
2026-05-01 08:29 50.47550 19.30419 3619 ft 166 kts 274°
2026-05-01 08:29 50.47554 19.28589 3406 ft 170 kts 273°
2026-05-01 08:29 50.47559 19.26788 3186 ft 166 kts 273°
2026-05-01 08:29 50.47560 19.24986 2945 ft 163 kts 271°
2026-05-01 08:30 50.47568 19.23211 2728 ft 161 kts 273°
2026-05-01 08:30 50.47570 19.21445 2502 ft 161 kts 272°
2026-05-01 08:30 50.47574 19.19737 2284 ft 152 kts 272°
2026-05-01 08:30 50.47583 19.18121 2082 ft 146 kts 270°
2026-05-01 08:31 50.47581 19.16502 1872 ft 150 kts 271°
2026-05-01 08:31 50.47584 19.14849 1661 ft 153 kts 271°
2026-05-01 08:31 50.47589 19.13192 1453 ft 151 kts 271°
2026-05-01 08:31 50.47592 19.11552 1260 ft 150 kts 271°
2026-05-01 08:32 50.47604 19.09902 1034 ft 151 kts 273°
2026-05-01 08:32 50.47630 19.08364 1005 ft 130 kts 271°
2026-05-01 08:32 50.47588 19.09181 1124 ft 937 kts 270°
2026-05-01 08:32 50.47597 19.09780 1048 ft 148 kts 273°
2026-05-01 08:33 50.47626 19.08324 996 ft 110 kts 270°
2026-05-01 08:33 50.47607 19.07708 994 ft 37 kts 272°
2026-05-01 08:33 50.47605 19.07319 992 ft 31 kts 270°
2026-05-01 08:33 50.47550 19.07010 990 ft 19 kts 244°
2026-05-01 08:34 50.47536 19.06971 989 ft 8 kts 239°
2026-05-01 08:34 50.47468 19.06863 989 ft 7 kts 184°
2026-05-01 08:34 50.47434 19.06929 990 ft 10 kts 83°
2026-05-01 08:34 50.47433 19.07057 997 ft 13 kts 94°
2026-05-01 08:35 50.47429 19.07219 990 ft 16 kts 90°
2026-05-01 08:35 50.47422 19.07410 991 ft 18 kts 114°
2026-05-01 08:35 50.47320 19.07447 993 ft 17 kts 180°
2026-05-01 08:35 50.47251 19.07431 991 ft 5 kts 218°
2026-05-01 08:36 50.47237 19.07363 992 ft 7 kts 228°
2026-05-01 08:36 50.47183 19.07344 994 ft 6 kts 204°
2026-05-01 08:36 50.47173 19.07335 995 ft 0 kts 209°